DKH2339 ZSPD-ZGBH

Flight info

Callsign DKH2339
Flight time 2h 26m
Altitude 36100
Route NXD W131 AKDIM A470 DUBGO W134 ELNEX A599 PLT W19 NOMAR W18 NLG W23 ZUH R200 LH R339 BHY
Aircraft A321/M-SDE3FGHIRWY/LB1

Departure

Time 2026-05-06 02:19
Airport Shanghai Pudong International Airport (ZSPD)

Arrival

Time 2026-05-06 04:46
Airport Beihai Fucheng Airport (ZGBH)
Time Latitude Longitude Altitude Speed Heading
2026-05-06 01:45 31.14253 121.81045 24 ft 0 kts 162°
2026-05-06 02:04 31.14265 121.81041 25 ft 4 kts 162°
2026-05-06 02:05 31.14288 121.81033 23 ft 3 kts 162°
2026-05-06 02:05 31.14311 121.81030 23 ft 4 kts 213°
2026-05-06 02:05 31.14325 121.81053 23 ft 3 kts 252°
2026-05-06 02:05 31.14327 121.81062 23 ft 0 kts 252°
2026-05-06 02:09 31.14326 121.81059 23 ft 1 kts 252°
2026-05-06 02:09 31.14319 121.81033 23 ft 6 kts 252°
2026-05-06 02:09 31.14301 121.80968 23 ft 11 kts 252°
2026-05-06 02:09 31.14273 121.80866 23 ft 16 kts 252°
2026-05-06 02:10 31.14235 121.80729 24 ft 20 kts 252°
2026-05-06 02:10 31.14188 121.80559 23 ft 23 kts 252°
2026-05-06 02:10 31.14154 121.80419 23 ft 13 kts 277°
2026-05-06 02:10 31.14212 121.80350 23 ft 11 kts 284°
2026-05-06 02:11 31.14194 121.80266 25 ft 11 kts 250°
2026-05-06 02:11 31.14168 121.80171 23 ft 14 kts 252°
2026-05-06 02:11 31.14138 121.80063 24 ft 14 kts 251°
2026-05-06 02:11 31.14106 121.79952 25 ft 15 kts 252°
2026-05-06 02:12 31.14075 121.79838 24 ft 15 kts 252°
2026-05-06 02:12 31.14047 121.79720 23 ft 15 kts 259°
2026-05-06 02:12 31.14048 121.79608 23 ft 14 kts 313°
2026-05-06 02:12 31.14137 121.79568 24 ft 14 kts 343°
2026-05-06 02:13 31.14231 121.79533 23 ft 15 kts 342°
2026-05-06 02:13 31.14339 121.79492 24 ft 17 kts 342°
2026-05-06 02:13 31.14451 121.79450 24 ft 17 kts 342°
2026-05-06 02:13 31.14564 121.79407 23 ft 17 kts 342°
2026-05-06 02:14 31.14679 121.79364 24 ft 18 kts 342°
2026-05-06 02:14 31.14798 121.79319 24 ft 18 kts 342°
2026-05-06 02:14 31.14919 121.79273 23 ft 18 kts 342°
2026-05-06 02:14 31.15042 121.79227 23 ft 19 kts 342°
2026-05-06 02:15 31.15169 121.79179 23 ft 19 kts 342°
2026-05-06 02:15 31.15297 121.79131 25 ft 20 kts 342°
2026-05-06 02:15 31.15428 121.79081 24 ft 20 kts 342°
2026-05-06 02:15 31.15562 121.79030 23 ft 20 kts 342°
2026-05-06 02:16 31.15696 121.78978 22 ft 20 kts 342°
2026-05-06 02:16 31.15832 121.78929 24 ft 20 kts 341°
2026-05-06 02:16 31.15967 121.78878 23 ft 20 kts 342°
2026-05-06 02:16 31.16102 121.78827 23 ft 18 kts 341°
2026-05-06 02:17 31.16149 121.78750 24 ft 10 kts 257°
2026-05-06 02:17 31.16127 121.78671 23 ft 11 kts 251°
2026-05-06 02:17 31.16085 121.78617 22 ft 9 kts 180°
2026-05-06 02:17 31.16023 121.78638 22 ft 10 kts 165°
2026-05-06 02:18 31.16001 121.78646 22 ft 0 kts 162°
2026-05-06 02:18 31.16000 121.78646 22 ft 1 kts 162°
2026-05-06 02:18 31.15938 121.78669 22 ft 31 kts 162°
2026-05-06 02:19 31.15506 121.78832 22 ft 97 kts 162°
2026-05-06 02:19 31.14679 121.79144 26 ft 150 kts 162°
2026-05-06 02:19 31.13574 121.79560 239 ft 172 kts 163°
2026-05-06 02:19 31.12474 121.79944 1058 ft 161 kts 164°
2026-05-06 02:20 31.10344 121.80688 2269 ft 162 kts 163°
2026-05-06 02:20 31.09267 121.81089 2800 ft 162 kts 162°
2026-05-06 02:20 31.08177 121.81460 3350 ft 168 kts 164°
2026-05-06 02:21 31.06986 121.81852 3579 ft 188 kts 164°
2026-05-06 02:21 31.05670 121.82289 3727 ft 205 kts 164°
2026-05-06 02:21 31.04250 121.82763 3941 ft 217 kts 164°
2026-05-06 02:21 31.02792 121.83248 4302 ft 219 kts 165°
2026-05-06 02:22 31.01323 121.83686 4580 ft 226 kts 173°
2026-05-06 02:22 30.99743 121.83245 4705 ft 251 kts 214°
2026-05-06 02:22 30.98605 121.81636 5077 ft 268 kts 242°
2026-05-06 02:22 30.97898 121.79599 5657 ft 274 kts 250°
2026-05-06 02:23 30.97345 121.77446 5886 ft 278 kts 253°
2026-05-06 02:23 30.96841 121.75271 5918 ft 278 kts 253°
2026-05-06 02:23 30.96364 121.73093 5917 ft 278 kts 260°
2026-05-06 02:23 30.96334 121.70844 5957 ft 281 kts 278°
2026-05-06 02:24 30.96778 121.68617 6612 ft 283 kts 282°
2026-05-06 02:24 30.97218 121.66375 7315 ft 285 kts 281°
2026-05-06 02:24 30.97633 121.64107 7971 ft 288 kts 281°
2026-05-06 02:24 30.97903 121.62592 8390 ft 289 kts 281°
2026-05-06 02:25 30.98313 121.60286 9033 ft 291 kts 281°
2026-05-06 02:25 30.98728 121.57967 9651 ft 294 kts 281°
2026-05-06 02:25 30.99151 121.55630 10240 ft 297 kts 281°
2026-05-06 02:25 30.99594 121.53196 10413 ft 317 kts 282°
2026-05-06 02:26 31.00068 121.50615 10560 ft 335 kts 282°
2026-05-06 02:26 31.00569 121.47900 10797 ft 349 kts 282°
2026-05-06 02:26 31.01086 121.45109 11301 ft 354 kts 282°
2026-05-06 02:26 31.01607 121.42294 11908 ft 356 kts 282°
2026-05-06 02:27 31.02298 121.38555 12741 ft 357 kts 282°
2026-05-06 02:27 31.02651 121.36639 13125 ft 359 kts 282°
2026-05-06 02:27 31.03176 121.33785 13680 ft 362 kts 282°
2026-05-06 02:27 31.03702 121.30906 14230 ft 364 kts 283°
2026-05-06 02:28 31.04230 121.28001 14784 ft 367 kts 283°
2026-05-06 02:28 31.04760 121.25075 15307 ft 370 kts 283°
2026-05-06 02:28 31.05296 121.22124 15839 ft 373 kts 283°
2026-05-06 02:28 31.05837 121.19154 16361 ft 376 kts 283°
2026-05-06 02:29 31.06370 121.16201 16862 ft 379 kts 282°
2026-05-06 02:29 31.06631 121.13091 17354 ft 384 kts 271°
2026-05-06 02:29 31.06359 121.09977 17829 ft 389 kts 260°
2026-05-06 02:29 31.05652 121.06957 18286 ft 393 kts 256°
2026-05-06 02:30 31.04887 121.03882 18773 ft 396 kts 256°
2026-05-06 02:30 31.04128 121.00788 19254 ft 398 kts 257°
2026-05-06 02:30 31.03367 120.97673 19706 ft 401 kts 257°
2026-05-06 02:30 31.02603 120.94539 20165 ft 403 kts 257°
2026-05-06 02:31 31.01830 120.91386 20614 ft 406 kts 257°
2026-05-06 02:31 31.01050 120.88218 21047 ft 408 kts 257°
2026-05-06 02:31 31.00267 120.85034 21459 ft 410 kts 257°
2026-05-06 02:31 30.99477 120.81835 21841 ft 412 kts 257°
2026-05-06 02:32 30.98682 120.78614 22234 ft 414 kts 257°
2026-05-06 02:32 30.97884 120.75382 22610 ft 416 kts 257°
2026-05-06 02:32 30.97080 120.72131 22973 ft 418 kts 257°
2026-05-06 02:32 30.96270 120.68868 23337 ft 420 kts 257°
2026-05-06 02:33 30.95454 120.65584 23682 ft 423 kts 257°
2026-05-06 02:33 30.94902 120.63360 23915 ft 424 kts 258°
2026-05-06 02:34 30.92145 120.52314 24987 ft 431 kts 258°
2026-05-06 02:34 30.91291 120.48954 25286 ft 434 kts 256°
2026-05-06 02:34 30.90098 120.45692 25570 ft 443 kts 246°
2026-05-06 02:34 30.88392 120.42670 25842 ft 452 kts 235°
2026-05-06 02:35 30.86197 120.40006 26112 ft 462 kts 224°
2026-05-06 02:35 30.83601 120.37759 26375 ft 468 kts 219°
2026-05-06 02:35 30.80928 120.35582 26623 ft 470 kts 219°
2026-05-06 02:35 30.78239 120.33389 26875 ft 473 kts 219°
2026-05-06 02:36 30.75540 120.31187 27093 ft 475 kts 219°
2026-05-06 02:36 30.72822 120.28968 27328 ft 479 kts 219°
2026-05-06 02:36 30.70091 120.26740 27552 ft 481 kts 219°
2026-05-06 02:36 30.67346 120.24502 27770 ft 483 kts 219°
2026-05-06 02:37 30.64587 120.22253 27978 ft 486 kts 219°
2026-05-06 02:37 30.61809 120.19992 28186 ft 489 kts 219°
2026-05-06 02:37 30.59015 120.17719 28390 ft 491 kts 219°
2026-05-06 02:37 30.56209 120.15437 28615 ft 494 kts 219°
2026-05-06 02:38 30.53390 120.13146 28808 ft 497 kts 219°
2026-05-06 02:38 30.50552 120.10841 29016 ft 499 kts 219°
2026-05-06 02:38 30.47700 120.08529 29219 ft 502 kts 220°
2026-05-06 02:38 30.44831 120.06207 29420 ft 505 kts 219°
2026-05-06 02:39 30.41905 120.03928 29613 ft 508 kts 217°
2026-05-06 02:39 30.38930 120.01810 29886 ft 510 kts 215°
2026-05-06 02:39 30.35842 119.99770 30180 ft 512 kts 213°
2026-05-06 02:39 30.32719 119.97792 30444 ft 512 kts 212°
2026-05-06 02:40 30.29587 119.95822 30735 ft 512 kts 213°
2026-05-06 02:40 30.26476 119.93833 31033 ft 511 kts 213°
2026-05-06 02:40 30.23379 119.91809 31325 ft 511 kts 214°
2026-05-06 02:40 30.20303 119.89759 31641 ft 510 kts 214°
2026-05-06 02:41 30.17237 119.87698 31912 ft 509 kts 214°
2026-05-06 02:41 30.14356 119.85764 32181 ft 509 kts 214°
2026-05-06 02:41 30.11370 119.83771 32444 ft 509 kts 213°
2026-05-06 02:41 30.08310 119.81739 32746 ft 507 kts 213°
2026-05-06 02:42 30.05251 119.79715 33026 ft 506 kts 213°
2026-05-06 02:42 30.02200 119.77690 33293 ft 505 kts 213°
2026-05-06 02:42 29.99161 119.75658 33543 ft 504 kts 214°
2026-05-06 02:42 29.96131 119.73621 33756 ft 504 kts 214°
2026-05-06 02:43 29.93103 119.71580 34009 ft 504 kts 213°
2026-05-06 02:43 29.90081 119.69544 34246 ft 503 kts 214°
2026-05-06 02:43 29.87065 119.67511 34494 ft 502 kts 214°
2026-05-06 02:43 29.84069 119.65451 34747 ft 500 kts 216°
2026-05-06 02:44 29.81148 119.63293 34973 ft 498 kts 218°
2026-05-06 02:44 29.78290 119.61053 35226 ft 496 kts 219°
2026-05-06 02:44 29.75475 119.58773 35484 ft 494 kts 220°
2026-05-06 02:44 29.72677 119.56490 35716 ft 492 kts 220°
2026-05-06 02:45 29.69881 119.54229 35916 ft 491 kts 219°
2026-05-06 02:45 29.67070 119.51992 36082 ft 491 kts 219°
2026-05-06 02:45 29.64285 119.49738 36126 ft 487 kts 224°
2026-05-06 02:46 29.59518 119.44359 36127 ft 478 kts 234°
2026-05-06 02:46 29.55072 119.38698 36129 ft 476 kts 234°
2026-05-06 02:47 29.50637 119.33044 36124 ft 476 kts 234°
2026-05-06 02:47 29.46203 119.27400 36132 ft 476 kts 234°
2026-05-06 02:48 29.41759 119.21766 36141 ft 476 kts 234°
2026-05-06 02:48 29.37316 119.16134 36144 ft 476 kts 234°
2026-05-06 02:49 29.32878 119.10510 36132 ft 475 kts 234°
2026-05-06 02:49 29.28434 119.04894 36148 ft 476 kts 234°
2026-05-06 02:50 29.23983 118.99278 36149 ft 476 kts 234°
2026-05-06 02:50 29.19571 118.93713 36151 ft 475 kts 234°
2026-05-06 02:51 29.15134 118.88111 36149 ft 475 kts 234°
2026-05-06 02:51 29.10692 118.82523 36147 ft 474 kts 234°
2026-05-06 02:52 29.06246 118.76966 36145 ft 473 kts 234°
2026-05-06 02:52 29.01811 118.71415 36138 ft 472 kts 234°
2026-05-06 02:53 28.97388 118.65874 36143 ft 472 kts 234°
2026-05-06 02:53 28.92965 118.60335 36131 ft 472 kts 234°
2026-05-06 02:54 28.88538 118.54809 36140 ft 472 kts 234°
2026-05-06 02:54 28.84113 118.49289 36140 ft 471 kts 234°
2026-05-06 02:55 28.79683 118.43776 36139 ft 471 kts 234°
2026-05-06 02:55 28.75253 118.38275 36145 ft 471 kts 234°
2026-05-06 02:56 28.70826 118.32788 36147 ft 470 kts 234°
2026-05-06 02:56 28.66405 118.27300 36148 ft 470 kts 234°
2026-05-06 02:57 28.61983 118.21827 36149 ft 469 kts 234°
2026-05-06 02:57 28.57567 118.16362 36149 ft 469 kts 234°
2026-05-06 02:58 28.53154 118.10909 36148 ft 468 kts 234°
2026-05-06 02:58 28.48735 118.05469 36147 ft 468 kts 234°
2026-05-06 02:59 28.44324 118.00037 36132 ft 467 kts 234°
2026-05-06 02:59 28.39903 117.94624 36133 ft 467 kts 234°
2026-05-06 03:00 28.35393 117.89303 36132 ft 468 kts 233°
2026-05-06 03:00 28.30868 117.84063 36129 ft 468 kts 233°
2026-05-06 03:01 28.26333 117.78778 36137 ft 467 kts 231°
2026-05-06 03:01 28.21831 117.73502 36147 ft 464 kts 231°
2026-05-06 03:02 28.17354 117.68260 36148 ft 462 kts 231°
2026-05-06 03:02 28.12885 117.63039 36146 ft 461 kts 231°
2026-05-06 03:03 28.08419 117.57837 36143 ft 460 kts 231°
2026-05-06 03:03 28.03958 117.52646 36142 ft 460 kts 231°
2026-05-06 03:04 27.99509 117.47438 36132 ft 459 kts 231°
2026-05-06 03:04 27.95090 117.42256 36142 ft 457 kts 231°
2026-05-06 03:05 27.90668 117.37089 36148 ft 457 kts 231°
2026-05-06 03:05 27.86246 117.31930 36148 ft 457 kts 231°
2026-05-06 03:06 27.81827 117.26778 36150 ft 456 kts 231°
2026-05-06 03:06 27.77416 117.21647 36153 ft 455 kts 231°
2026-05-06 03:07 27.73003 117.16530 36152 ft 455 kts 231°
2026-05-06 03:07 27.68597 117.11419 36153 ft 454 kts 231°
2026-05-06 03:08 27.64200 117.06320 36154 ft 453 kts 231°
2026-05-06 03:08 27.59841 117.01273 36153 ft 452 kts 231°
2026-05-06 03:09 27.55453 116.96206 36154 ft 451 kts 231°
2026-05-06 03:09 27.51076 116.91157 36154 ft 450 kts 231°
2026-05-06 03:10 27.46739 116.86095 36152 ft 449 kts 231°
2026-05-06 03:10 27.42428 116.81027 36153 ft 448 kts 231°
2026-05-06 03:11 27.38116 116.75978 36145 ft 447 kts 231°
2026-05-06 03:11 27.33804 116.70942 36126 ft 446 kts 231°
2026-05-06 03:12 27.29487 116.65923 36129 ft 446 kts 231°
2026-05-06 03:12 27.25176 116.60915 36125 ft 446 kts 231°
2026-05-06 03:13 27.21594 116.56758 36122 ft 445 kts 231°
2026-05-06 03:13 27.17337 116.51724 36119 ft 443 kts 232°
2026-05-06 03:14 27.12466 116.45774 36119 ft 443 kts 232°
2026-05-06 03:14 27.08333 116.40712 36112 ft 442 kts 232°
2026-05-06 03:15 27.04831 116.36467 36122 ft 443 kts 232°
2026-05-06 03:15 27.00635 116.31412 36116 ft 443 kts 232°
2026-05-06 03:16 26.96438 116.26353 36110 ft 443 kts 232°
2026-05-06 03:16 26.92271 116.21327 36104 ft 443 kts 232°
2026-05-06 03:17 26.88079 116.16277 36103 ft 443 kts 232°
2026-05-06 03:17 26.83883 116.11232 36101 ft 442 kts 232°
2026-05-06 03:18 26.79691 116.06198 36102 ft 442 kts 232°
2026-05-06 03:18 26.75499 116.01174 36100 ft 442 kts 232°
2026-05-06 03:19 26.71278 115.96122 36102 ft 441 kts 232°
2026-05-06 03:19 26.67155 115.91124 36103 ft 440 kts 232°
2026-05-06 03:20 26.60949 115.83585 36102 ft 439 kts 232°
2026-05-06 03:20 26.56807 115.78577 36099 ft 439 kts 232°
2026-05-06 03:21 26.52659 115.73581 36097 ft 439 kts 232°
2026-05-06 03:21 26.48509 115.68586 36093 ft 439 kts 232°
2026-05-06 03:22 26.44360 115.63594 36093 ft 438 kts 232°
2026-05-06 03:22 26.40217 115.58601 36082 ft 437 kts 232°
2026-05-06 03:23 26.36087 115.53627 36082 ft 438 kts 232°
2026-05-06 03:23 26.31938 115.48657 36080 ft 438 kts 232°
2026-05-06 03:24 26.27782 115.43690 36084 ft 438 kts 232°
2026-05-06 03:24 26.23664 115.38757 36080 ft 437 kts 232°
2026-05-06 03:25 26.19520 115.33790 36081 ft 438 kts 232°
2026-05-06 03:25 26.15370 115.28831 36081 ft 438 kts 231°
2026-05-06 03:26 26.11210 115.23874 36084 ft 438 kts 231°
2026-05-06 03:26 26.07048 115.18914 36089 ft 438 kts 232°
2026-05-06 03:27 26.02884 115.13958 36090 ft 438 kts 231°
2026-05-06 03:27 25.98718 115.09005 36090 ft 439 kts 231°
2026-05-06 03:28 25.94551 115.04056 36100 ft 439 kts 232°
2026-05-06 03:28 25.90375 114.99102 36106 ft 440 kts 231°
2026-05-06 03:29 25.86193 114.94156 36099 ft 439 kts 231°
2026-05-06 03:29 25.81937 114.89294 36097 ft 442 kts 224°
2026-05-06 03:30 25.76606 114.85761 36095 ft 454 kts 207°
2026-05-06 03:30 25.70739 114.83137 36091 ft 455 kts 207°
2026-05-06 03:31 25.64874 114.80494 36100 ft 455 kts 207°
2026-05-06 03:31 25.59045 114.77859 36107 ft 455 kts 207°
2026-05-06 03:32 25.53180 114.75209 36109 ft 455 kts 207°
2026-05-06 03:32 25.47316 114.72573 36109 ft 455 kts 207°
2026-05-06 03:33 25.41455 114.69934 36110 ft 455 kts 207°
2026-05-06 03:33 25.35583 114.67295 36115 ft 456 kts 207°
2026-05-06 03:34 25.29712 114.64660 36112 ft 455 kts 207°
2026-05-06 03:34 25.23839 114.62033 36113 ft 455 kts 207°
2026-05-06 03:35 25.17967 114.59405 36125 ft 455 kts 207°
2026-05-06 03:35 25.12092 114.56780 36126 ft 455 kts 207°
2026-05-06 03:36 25.06220 114.54155 36137 ft 455 kts 207°
2026-05-06 03:36 25.00347 114.51530 36133 ft 455 kts 207°
2026-05-06 03:37 24.94469 114.48911 36127 ft 455 kts 207°
2026-05-06 03:37 24.88601 114.46294 36143 ft 455 kts 207°
2026-05-06 03:38 24.82727 114.43678 36138 ft 455 kts 207°
2026-05-06 03:38 24.76853 114.41068 36139 ft 455 kts 207°
2026-05-06 03:39 24.70971 114.38464 36141 ft 456 kts 207°
2026-05-06 03:39 24.65095 114.35858 36139 ft 455 kts 207°
2026-05-06 03:40 24.59221 114.33254 36138 ft 455 kts 207°
2026-05-06 03:40 24.53347 114.30651 36143 ft 456 kts 207°
2026-05-06 03:41 24.47468 114.28044 36144 ft 455 kts 207°
2026-05-06 03:41 24.41634 114.25468 36130 ft 455 kts 207°
2026-05-06 03:42 24.35765 114.22874 36139 ft 455 kts 207°
2026-05-06 03:42 24.29890 114.20281 36148 ft 455 kts 207°
2026-05-06 03:43 24.24017 114.17692 36148 ft 455 kts 207°
2026-05-06 03:43 24.18132 114.15108 36151 ft 456 kts 207°
2026-05-06 03:44 24.12245 114.12530 36148 ft 455 kts 207°
2026-05-06 03:44 24.06360 114.09946 36148 ft 456 kts 207°
2026-05-06 03:45 24.00479 114.07360 36145 ft 455 kts 207°
2026-05-06 03:45 23.94600 114.04780 36136 ft 456 kts 207°
2026-05-06 03:46 23.88713 114.02197 36142 ft 456 kts 207°
2026-05-06 03:46 23.82826 113.99613 36143 ft 456 kts 207°
2026-05-06 03:47 23.76933 113.97041 36137 ft 456 kts 207°
2026-05-06 03:47 23.71049 113.94479 36139 ft 455 kts 207°
2026-05-06 03:48 23.65165 113.91913 36148 ft 455 kts 207°
2026-05-06 03:48 23.59284 113.89350 36149 ft 455 kts 207°
2026-05-06 03:49 23.53400 113.86793 36148 ft 455 kts 207°
2026-05-06 03:49 23.47357 113.84615 36149 ft 460 kts 201°
2026-05-06 03:50 23.41191 113.82752 36146 ft 459 kts 201°
2026-05-06 03:50 23.35030 113.80902 36142 ft 459 kts 201°
2026-05-06 03:51 23.28869 113.79043 36142 ft 460 kts 201°
2026-05-06 03:51 23.22706 113.77179 36138 ft 460 kts 200°
2026-05-06 03:52 23.16540 113.75329 36136 ft 460 kts 200°
2026-05-06 03:52 23.10376 113.73481 36139 ft 460 kts 200°
2026-05-06 03:53 23.04210 113.71635 36140 ft 459 kts 200°
2026-05-06 03:53 22.98052 113.69791 36143 ft 459 kts 200°
2026-05-06 03:54 22.91936 113.67954 36134 ft 459 kts 200°
2026-05-06 03:54 22.85774 113.66107 36130 ft 459 kts 200°
2026-05-06 03:55 22.79612 113.64256 36128 ft 460 kts 200°
2026-05-06 03:55 22.73448 113.62407 36132 ft 459 kts 200°
2026-05-06 03:56 22.67286 113.60564 36132 ft 460 kts 200°
2026-05-06 03:56 22.61112 113.58721 36127 ft 460 kts 200°
2026-05-06 03:57 22.54942 113.56876 36129 ft 460 kts 200°
2026-05-06 03:57 22.48785 113.55004 36129 ft 459 kts 201°
2026-05-06 03:58 22.42659 113.53041 36129 ft 459 kts 201°
2026-05-06 03:58 22.36541 113.51064 36133 ft 459 kts 201°
2026-05-06 03:59 22.30418 113.49113 36119 ft 459 kts 201°
2026-05-06 03:59 22.24775 113.46167 36119 ft 446 kts 221°
2026-05-06 04:00 22.22479 113.43950 36111 ft 440 kts 232°
2026-05-06 04:00 22.20627 113.41356 36115 ft 435 kts 242°
2026-05-06 04:00 22.18130 113.35481 36111 ft 431 kts 251°
2026-05-06 04:01 22.15868 113.29491 36110 ft 431 kts 250°
2026-05-06 04:01 22.13970 113.24514 36115 ft 432 kts 250°
2026-05-06 04:02 22.11185 113.17599 36115 ft 433 kts 248°
2026-05-06 04:02 22.08670 113.11699 36119 ft 433 kts 248°
2026-05-06 04:03 22.06165 113.05791 36118 ft 433 kts 248°
2026-05-06 04:03 22.03700 112.99876 36119 ft 432 kts 249°
2026-05-06 04:04 22.01724 112.94934 36117 ft 432 kts 250°
2026-05-06 04:04 21.99050 112.87939 36120 ft 432 kts 250°
2026-05-06 04:05 21.97141 112.82959 36108 ft 433 kts 249°
2026-05-06 04:05 21.94784 112.76987 36107 ft 434 kts 249°
2026-05-06 04:06 21.92356 112.71033 36108 ft 434 kts 248°
2026-05-06 04:06 21.89931 112.65074 36114 ft 435 kts 249°
2026-05-06 04:07 21.87512 112.59109 36113 ft 435 kts 249°
2026-05-06 04:07 21.85101 112.53142 36118 ft 435 kts 249°
2026-05-06 04:08 21.82726 112.47156 36113 ft 435 kts 249°
2026-05-06 04:08 21.80362 112.41161 36113 ft 435 kts 249°
2026-05-06 04:09 21.77997 112.35182 36108 ft 435 kts 249°
2026-05-06 04:09 21.75616 112.29198 36110 ft 435 kts 249°
2026-05-06 04:10 21.73231 112.23219 36109 ft 435 kts 249°
2026-05-06 04:10 21.70863 112.17289 36108 ft 435 kts 249°
2026-05-06 04:11 21.68479 112.11317 36105 ft 435 kts 249°
2026-05-06 04:11 21.66090 112.05348 36103 ft 435 kts 249°
2026-05-06 04:12 21.63704 111.99381 36103 ft 434 kts 249°
2026-05-06 04:12 21.61318 111.93415 36100 ft 435 kts 249°
2026-05-06 04:13 21.60125 111.90427 35929 ft 436 kts 249°
2026-05-06 04:13 21.58929 111.87445 35599 ft 434 kts 248°
2026-05-06 04:13 21.57732 111.84468 35282 ft 434 kts 248°
2026-05-06 04:13 21.56648 111.81454 34955 ft 432 kts 254°
2026-05-06 04:14 21.55760 111.78372 34628 ft 432 kts 254°
2026-05-06 04:14 21.54874 111.75295 34300 ft 431 kts 254°
2026-05-06 04:14 21.53991 111.72228 33980 ft 428 kts 253°
2026-05-06 04:14 21.53111 111.69183 33654 ft 426 kts 253°
2026-05-06 04:15 21.52233 111.66147 33328 ft 425 kts 253°
2026-05-06 04:15 21.51356 111.63127 33003 ft 423 kts 253°
2026-05-06 04:15 21.50483 111.60123 32677 ft 421 kts 253°
2026-05-06 04:15 21.49611 111.57123 32349 ft 420 kts 253°
2026-05-06 04:16 21.48745 111.54134 32024 ft 418 kts 253°
2026-05-06 04:16 21.47884 111.51154 31697 ft 417 kts 253°
2026-05-06 04:16 21.47024 111.48191 31373 ft 416 kts 254°
2026-05-06 04:16 21.46164 111.45232 31049 ft 415 kts 253°
2026-05-06 04:17 21.45307 111.42283 30721 ft 413 kts 253°
2026-05-06 04:17 21.44453 111.39346 30401 ft 412 kts 253°
2026-05-06 04:17 21.43602 111.36422 30070 ft 410 kts 253°
2026-05-06 04:17 21.42751 111.33505 29744 ft 408 kts 253°
2026-05-06 04:18 21.41907 111.30603 29419 ft 407 kts 253°
2026-05-06 04:18 21.41066 111.27711 29091 ft 405 kts 253°
2026-05-06 04:18 21.40226 111.24833 28766 ft 404 kts 253°
2026-05-06 04:18 21.39387 111.21964 28440 ft 402 kts 253°
2026-05-06 04:19 21.38548 111.19110 28115 ft 400 kts 253°
2026-05-06 04:19 21.37725 111.16308 27788 ft 398 kts 253°
2026-05-06 04:19 21.36886 111.13444 27461 ft 396 kts 253°
2026-05-06 04:19 21.36075 111.10671 27144 ft 395 kts 253°
2026-05-06 04:20 21.35255 111.07867 26818 ft 393 kts 253°
2026-05-06 04:20 21.34440 111.05081 26493 ft 391 kts 253°
2026-05-06 04:20 21.33628 111.02308 26167 ft 389 kts 253°
2026-05-06 04:20 21.32819 110.99548 25844 ft 387 kts 253°
2026-05-06 04:21 21.32012 110.96801 25515 ft 386 kts 253°
2026-05-06 04:21 21.31207 110.94066 25191 ft 383 kts 253°
2026-05-06 04:21 21.30407 110.91347 24867 ft 381 kts 253°
2026-05-06 04:21 21.29611 110.88642 24540 ft 380 kts 253°
2026-05-06 04:22 21.28816 110.85950 24209 ft 378 kts 253°
2026-05-06 04:22 21.28022 110.83267 23888 ft 377 kts 253°
2026-05-06 04:22 21.27234 110.80599 23561 ft 374 kts 252°
2026-05-06 04:23 21.25665 110.75308 22898 ft 370 kts 252°
2026-05-06 04:23 21.24889 110.72681 22586 ft 369 kts 252°
2026-05-06 04:23 21.24118 110.70065 22260 ft 367 kts 252°
2026-05-06 04:23 21.23348 110.67462 21935 ft 365 kts 252°
2026-05-06 04:24 21.22578 110.64875 21618 ft 363 kts 252°
2026-05-06 04:24 21.21812 110.62306 21283 ft 361 kts 252°
2026-05-06 04:24 21.21052 110.59740 20959 ft 360 kts 252°
2026-05-06 04:24 21.20297 110.57190 20632 ft 358 kts 252°
2026-05-06 04:25 21.19549 110.54652 20313 ft 356 kts 253°
2026-05-06 04:25 21.18811 110.52126 19982 ft 355 kts 253°
2026-05-06 04:25 21.18074 110.49610 19654 ft 353 kts 253°
2026-05-06 04:25 21.17342 110.47104 19324 ft 351 kts 253°
2026-05-06 04:26 21.16612 110.44615 19005 ft 350 kts 252°
2026-05-06 04:26 21.15882 110.42138 18676 ft 348 kts 252°
2026-05-06 04:26 21.15155 110.39678 18352 ft 346 kts 252°
2026-05-06 04:26 21.14523 110.37198 18025 ft 345 kts 260°
2026-05-06 04:27 21.14325 110.34648 17699 ft 343 kts 271°
2026-05-06 04:27 21.14589 110.32119 17374 ft 342 kts 282°
2026-05-06 04:27 21.15302 110.29697 17049 ft 341 kts 292°
2026-05-06 04:27 21.16384 110.27432 16729 ft 341 kts 297°
2026-05-06 04:28 21.17514 110.25208 16401 ft 339 kts 297°
2026-05-06 04:28 21.18632 110.22990 16074 ft 337 kts 296°
2026-05-06 04:28 21.19739 110.20783 15748 ft 335 kts 297°
2026-05-06 04:28 21.20842 110.18590 15424 ft 333 kts 297°
2026-05-06 04:29 21.21939 110.16410 15094 ft 332 kts 297°
2026-05-06 04:29 21.23032 110.14238 14764 ft 330 kts 297°
2026-05-06 04:29 21.24119 110.12082 14445 ft 327 kts 297°
2026-05-06 04:29 21.25198 110.09942 14118 ft 326 kts 297°
2026-05-06 04:30 21.26271 110.07811 13786 ft 324 kts 296°
2026-05-06 04:30 21.27334 110.05692 13467 ft 322 kts 296°
2026-05-06 04:30 21.28378 110.03610 13145 ft 320 kts 296°
2026-05-06 04:30 21.29429 110.01517 12821 ft 318 kts 296°
2026-05-06 04:31 21.30473 109.99437 12493 ft 316 kts 296°
2026-05-06 04:31 21.31510 109.97370 12171 ft 315 kts 296°
2026-05-06 04:31 21.32547 109.95306 11844 ft 313 kts 296°
2026-05-06 04:31 21.33577 109.93256 11518 ft 312 kts 296°
2026-05-06 04:32 21.34603 109.91206 11188 ft 312 kts 296°
2026-05-06 04:32 21.35629 109.89155 10871 ft 312 kts 296°
2026-05-06 04:32 21.36656 109.87101 10538 ft 312 kts 296°
2026-05-06 04:32 21.37681 109.85047 10211 ft 312 kts 296°
2026-05-06 04:33 21.38706 109.82997 9887 ft 311 kts 296°
2026-05-06 04:33 21.39723 109.80965 9557 ft 306 kts 296°
2026-05-06 04:33 21.40725 109.78967 9226 ft 302 kts 296°
2026-05-06 04:33 21.41711 109.76993 8904 ft 299 kts 296°
2026-05-06 04:34 21.42688 109.75039 8574 ft 296 kts 295°
2026-05-06 04:34 21.43655 109.73104 8253 ft 293 kts 296°
2026-05-06 04:34 21.44616 109.71184 7928 ft 291 kts 296°
2026-05-06 04:34 21.45572 109.69276 7600 ft 290 kts 296°
2026-05-06 04:35 21.46527 109.67373 7275 ft 289 kts 296°
2026-05-06 04:35 21.47473 109.65480 6951 ft 287 kts 296°
2026-05-06 04:35 21.48411 109.63595 6620 ft 286 kts 295°
2026-05-06 04:35 21.49340 109.61717 6296 ft 285 kts 296°
2026-05-06 04:36 21.50268 109.59843 5968 ft 284 kts 296°
2026-05-06 04:36 21.51198 109.57974 5645 ft 283 kts 296°
2026-05-06 04:36 21.52112 109.56133 5320 ft 283 kts 296°
2026-05-06 04:36 21.53038 109.54276 4994 ft 281 kts 296°
2026-05-06 04:37 21.53959 109.52435 4816 ft 280 kts 296°
2026-05-06 04:37 21.54880 109.50591 4654 ft 281 kts 296°
2026-05-06 04:37 21.55798 109.48746 4507 ft 280 kts 296°
2026-05-06 04:37 21.56412 109.46790 4355 ft 276 kts 274°
2026-05-06 04:38 21.56251 109.44769 4205 ft 272 kts 250°
2026-05-06 04:38 21.55365 109.43011 4053 ft 267 kts 226°
2026-05-06 04:38 21.53930 109.41779 3903 ft 264 kts 204°
2026-05-06 04:38 21.52205 109.41103 3763 ft 264 kts 197°
2026-05-06 04:39 21.50459 109.40497 3602 ft 263 kts 197°
2026-05-06 04:39 21.48720 109.39893 3449 ft 260 kts 197°
2026-05-06 04:39 21.47026 109.39302 3288 ft 251 kts 197°
2026-05-06 04:39 21.45392 109.38734 3139 ft 242 kts 196°
2026-05-06 04:40 21.43825 109.38185 3035 ft 232 kts 196°
2026-05-06 04:40 21.42338 109.37663 2987 ft 217 kts 197°
2026-05-06 04:40 21.40906 109.37163 3022 ft 217 kts 196°
2026-05-06 04:40 21.39478 109.36666 2999 ft 216 kts 196°
2026-05-06 04:41 21.38051 109.36170 2997 ft 215 kts 196°
2026-05-06 04:41 21.36625 109.35671 2996 ft 216 kts 197°
2026-05-06 04:41 21.35352 109.34834 2996 ft 219 kts 228°
2026-05-06 04:41 21.34745 109.33344 3001 ft 224 kts 264°
2026-05-06 04:42 21.35039 109.31711 3023 ft 227 kts 290°
2026-05-06 04:42 21.35615 109.30132 3005 ft 227 kts 290°
2026-05-06 04:42 21.36292 109.28605 2993 ft 228 kts 303°
2026-05-06 04:42 21.37393 109.27382 2909 ft 230 kts 325°
2026-05-06 04:43 21.38822 109.26650 2728 ft 229 kts 347°
2026-05-06 04:43 21.40386 109.26521 2477 ft 225 kts
2026-05-06 04:43 21.41908 109.26825 2216 ft 218 kts 13°
2026-05-06 04:43 21.43344 109.27132 1923 ft 202 kts 13°
2026-05-06 04:44 21.44609 109.27399 1681 ft 175 kts 13°
2026-05-06 04:44 21.45754 109.27642 1443 ft 163 kts 13°
2026-05-06 04:44 21.46842 109.27873 1233 ft 157 kts 13°
2026-05-06 04:44 21.47907 109.28098 1031 ft 156 kts 13°
2026-05-06 04:45 21.48959 109.28335 848 ft 154 kts 14°
2026-05-06 04:45 21.50012 109.28542 629 ft 153 kts 11°
2026-05-06 04:45 21.51056 109.28760 419 ft 153 kts 13°
2026-05-06 04:45 21.52093 109.28988 211 ft 152 kts 12°
2026-05-06 04:46 21.53108 109.29204 101 ft 137 kts 11°
2026-05-06 04:46 21.53924 109.29376 88 ft 97 kts 11°
2026-05-06 04:46 21.54408 109.29475 90 ft 45 kts 10°
2026-05-06 04:46 21.54688 109.29536 89 ft 28 kts 10°
2026-05-06 04:47 21.54839 109.29549 89 ft 7 kts 321°
2026-05-06 04:47 21.54830 109.29525 90 ft 2 kts 204°
2026-05-06 04:47 21.54808 109.29525 87 ft 4 kts 172°
2026-05-06 04:47 21.54775 109.29535 90 ft 7 kts 165°
2026-05-06 04:48 21.54716 109.29542 91 ft 10 kts 185°
2026-05-06 04:48 21.54628 109.29524 90 ft 15 kts 191°
2026-05-06 04:48 21.54509 109.29500 89 ft 19 kts 191°
2026-05-06 04:48 21.54367 109.29470 89 ft 23 kts 191°
2026-05-06 04:49 21.54201 109.29434 92 ft 26 kts 191°
2026-05-06 04:49 21.54031 109.29398 88 ft 20 kts 192°
2026-05-06 04:49 21.53964 109.29326 89 ft 13 kts 274°
2026-05-06 04:49 21.53983 109.29228 89 ft 13 kts 282°
2026-05-06 04:50 21.54000 109.29145 89 ft 10 kts 282°
2026-05-06 04:50 21.54012 109.29079 90 ft 9 kts 282°
2026-05-06 04:50 21.54026 109.29007 91 ft 10 kts 279°
2026-05-06 04:50 21.54047 109.28935 90 ft 9 kts 319°
2026-05-06 04:51 21.54108 109.28947 90 ft 10 kts 16°
2026-05-06 04:51 21.54179 109.28963 89 ft 11 kts 11°
2026-05-06 04:51 21.54212 109.28969 87 ft 1 kts 10°
2026-05-06 04:51 21.54218 109.28971 87 ft 1 kts 10°
2026-05-06 04:52 21.54224 109.28972 87 ft 0 kts 10°